Time,TemperatureF,DewpointF,PressureIn,WindDirection,WindDirectionDegrees,WindSpeedMPH,WindSpeedGustMPH,Humidity,HourlyPrecipIn,Conditions,Clouds,dailyrainin,SoftwareType,DateUTC
2013-01-24 00:10:00,3.2,-6.2,30.29,North,0,7.8,-999.0,64,-99.99,,,0.00,Acu-Link.com,2013-01-24 06:10:00,
2013-01-24 00:25:00,3.2,-6.5,30.29,NW,315,4.2,-999.0,63,-99.99,,,0.00,Acu-Link.com,2013-01-24 06:25:00,
2013-01-24 00:41:00,3.2,-6.5,30.30,North,0,10.4,-999.0,63,-99.99,,,0.00,Acu-Link.com,2013-01-24 06:41:00,
2013-01-24 00:56:00,2.8,-6.9,30.29,North,0,5.8,-999.0,63,-99.99,,,0.00,Acu-Link.com,2013-01-24 06:56:00,
2013-01-24 01:11:00,2.7,-7.0,30.30,NNW,337,5.3,-999.0,63,-99.99,,,0.00,Acu-Link.com,2013-01-24 07:11:00,
2013-01-24 01:26:00,2.7,-6.7,30.30,NNW,337,4.2,-999.0,64,-99.99,,,0.00,Acu-Link.com,2013-01-24 07:26:00,
2013-01-24 01:41:00,2.7,-6.7,30.30,NNW,337,7.3,-999.0,64,-99.99,,,0.00,Acu-Link.com,2013-01-24 07:41:00,
2013-01-24 01:56:00,2.5,-6.9,30.31,North,0,4.2,-999.0,64,-99.99,,,0.00,Acu-Link.com,2013-01-24 07:56:00,
2013-01-24 02:12:00,2.5,-6.9,30.32,WNW,292,4.2,-999.0,64,-99.99,,,0.00,Acu-Link.com,2013-01-24 08:12:00,
2013-01-24 02:27:00,2.5,-6.9,30.33,NNW,337,5.8,-999.0,64,-99.99,,,0.00,Acu-Link.com,2013-01-24 08:27:00,
2013-01-24 02:42:00,2.5,-7.2,30.33,North,0,6.3,-999.0,63,-99.99,,,0.00,Acu-Link.com,2013-01-24 08:42:00,
2013-01-24 02:57:00,2.1,-7.6,30.34,North,0,4.2,-999.0,63,-99.99,,,0.00,Acu-Link.com,2013-01-24 08:57:00,
2013-01-24 03:16:00,1.8,-8.2,30.34,NNE,22,3.7,-999.0,62,-99.99,,,0.00,Acu-Link.com,2013-01-24 09:16:00,
2013-01-24 03:31:00,2.1,-7.9,30.34,NNE,22,4.2,-999.0,62,-99.99,,,0.00,Acu-Link.com,2013-01-24 09:31:00,
2013-01-24 03:46:00,1.9,-8.1,30.34,East,90,4.2,-999.0,62,-99.99,,,0.00,Acu-Link.com,2013-01-24 09:46:00,
2013-01-24 04:01:00,1.6,-8.4,30.34,NNW,337,6.8,-999.0,62,-99.99,,,0.00,Acu-Link.com,2013-01-24 10:01:00,
2013-01-24 04:17:00,1.8,-8.2,30.35,WNW,292,6.3,-999.0,62,-99.99,,,0.00,Acu-Link.com,2013-01-24 10:17:00,
2013-01-24 04:32:00,1.4,-8.9,30.34,North,0,4.2,-999.0,61,-99.99,,,0.00,Acu-Link.com,2013-01-24 10:32:00,
2013-01-24 04:47:00,1.4,-8.9,30.33,NNE,22,4.2,-999.0,61,-99.99,,,0.00,Acu-Link.com,2013-01-24 10:47:00,
2013-01-24 05:02:00,1.4,-8.9,30.34,NW,315,5.3,-999.0,61,-99.99,,,0.00,Acu-Link.com,2013-01-24 11:02:00,
2013-01-24 05:17:00,1.6,-8.7,30.33,NE,45,3.2,-999.0,61,-99.99,,,0.00,Acu-Link.com,2013-01-24 11:17:00,
2013-01-24 05:32:00,1.4,-8.9,30.32,North,0,2.2,-999.0,61,-99.99,,,0.00,Acu-Link.com,2013-01-24 11:32:00,
2013-01-24 05:47:00,1.2,-9.1,30.33,NNW,337,2.2,-999.0,61,-99.99,,,0.00,Acu-Link.com,2013-01-24 11:47:00,
2013-01-24 06:03:00,1.2,-9.1,30.33,SSE,157,0.0,-999.0,61,-99.99,,,0.00,Acu-Link.com,2013-01-24 12:03:00,
2013-01-24 06:18:00,1.2,-9.1,30.34,ENE,67,2.7,-999.0,61,-99.99,,,0.00,Acu-Link.com,2013-01-24 12:18:00,
2013-01-24 06:33:00,1.2,-9.1,30.35,East,90,3.2,-999.0,61,-99.99,,,0.00,Acu-Link.com,2013-01-24 12:33:00,
2013-01-24 06:48:00,1.2,-9.1,30.34,ENE,67,2.7,-999.0,61,-99.99,,,0.00,Acu-Link.com,2013-01-24 12:48:00,
2013-01-24 07:03:00,1.4,-8.9,30.34,ENE,67,2.7,-999.0,61,-99.99,,,0.00,Acu-Link.com,2013-01-24 13:03:00,
2013-01-24 07:18:00,1.4,-8.9,30.34,East,90,2.7,-999.0,61,-99.99,,,0.00,Acu-Link.com,2013-01-24 13:18:00,
2013-01-24 07:33:00,1.4,-8.6,30.35,NE,45,3.2,-999.0,62,-99.99,,,0.00,Acu-Link.com,2013-01-24 13:33:00,
2013-01-24 07:48:00,1.6,-8.4,30.36,East,90,2.2,-999.0,62,-99.99,,,0.00,Acu-Link.com,2013-01-24 13:48:00,
2013-01-24 08:03:00,2.1,-7.9,30.37,SE,135,3.7,-999.0,62,-99.99,,,0.00,Acu-Link.com,2013-01-24 14:03:00,
2013-01-24 08:19:00,2.5,-7.5,30.36,East,90,2.7,-999.0,62,-99.99,,,0.00,Acu-Link.com,2013-01-24 14:19:00,
2013-01-24 08:34:00,3.0,-7.0,30.36,WNW,292,0.0,-999.0,62,-99.99,,,0.00,Acu-Link.com,2013-01-24 14:34:00,
2013-01-24 08:49:00,3.6,-6.5,30.36,ESE,112,4.2,-999.0,62,-99.99,,,0.00,Acu-Link.com,2013-01-24 14:49:00,
2013-01-24 09:04:00,4.8,-5.3,30.36,SSE,157,3.7,-999.0,62,-99.99,,,0.00,Acu-Link.com,2013-01-24 15:04:00,
2013-01-24 09:19:00,5.7,-4.5,30.37,SE,135,1.7,-999.0,62,-99.99,,,0.00,Acu-Link.com,2013-01-24 15:19:00,
2013-01-24 09:34:00,7.0,-3.6,30.36,ESE,112,2.7,-999.0,61,-99.99,,,0.00,Acu-Link.com,2013-01-24 15:34:00,
2013-01-24 09:49:00,6.8,-3.8,30.35,SSE,157,4.2,-999.0,61,-99.99,,,0.00,Acu-Link.com,2013-01-24 15:49:00,
2013-01-24 10:04:00,6.8,-4.1,30.35,NE,45,5.8,-999.0,60,-99.99,,,0.00,Acu-Link.com,2013-01-24 16:04:00,
2013-01-24 10:19:00,6.8,-4.5,30.35,ESE,112,4.2,-999.0,59,-99.99,,,0.00,Acu-Link.com,2013-01-24 16:19:00,
2013-01-24 10:35:00,7.5,-3.8,30.35,East,90,3.7,-999.0,59,-99.99,,,0.00,Acu-Link.com,2013-01-24 16:35:00,
2013-01-24 10:50:00,8.1,-2.9,30.35,SSE,157,6.3,-999.0,60,-99.99,,,0.00,Acu-Link.com,2013-01-24 16:50:00,
2013-01-24 11:05:00,8.6,-2.8,30.35,South,180,4.7,-999.0,59,-99.99,,,0.00,Acu-Link.com,2013-01-24 17:05:00,
2013-01-24 11:20:00,9.1,-2.3,30.35,West,270,4.7,-999.0,59,-99.99,,,0.00,Acu-Link.com,2013-01-24 17:20:00,
2013-01-24 11:35:00,10.0,-1.4,30.32,East,90,5.3,-999.0,59,-99.99,,,0.00,Acu-Link.com,2013-01-24 17:35:00,
2013-01-24 11:50:00,11.1,-0.8,30.32,South,180,3.7,-999.0,58,-99.99,,,0.00,Acu-Link.com,2013-01-24 17:50:00,
2013-01-24 12:05:00,10.9,-1.3,30.29,SSE,157,3.7,-999.0,57,-99.99,,,0.00,Acu-Link.com,2013-01-24 18:05:00,
2013-01-24 12:20:00,11.1,-1.5,30.26,SSW,202,6.8,-999.0,56,-99.99,,,0.00,Acu-Link.com,2013-01-24 18:20:00,
2013-01-24 12:35:00,12.6,-0.1,30.25,North,0,5.3,-999.0,56,-99.99,,,0.00,Acu-Link.com,2013-01-24 18:35:00,
2013-01-24 12:51:00,12.9,0.2,30.25,ESE,112,3.7,-999.0,56,-99.99,,,0.00,Acu-Link.com,2013-01-24 18:51:00,
2013-01-24 13:06:00,13.3,-0.2,30.22,North,0,3.2,-999.0,54,-99.99,,,0.00,Acu-Link.com,2013-01-24 19:06:00,
2013-01-24 13:21:00,13.5,0.0,30.22,SW,225,3.2,-999.0,54,-99.99,,,0.00,Acu-Link.com,2013-01-24 19:21:00,
2013-01-24 13:36:00,13.6,-0.7,30.20,SSE,157,5.8,-999.0,52,-99.99,,,0.00,Acu-Link.com,2013-01-24 19:36:00,
2013-01-24 13:52:00,16.3,1.8,30.19,SSE,157,4.2,-999.0,52,-99.99,,,0.00,Acu-Link.com,2013-01-24 19:52:00,
2013-01-24 14:07:00,14.7,-0.1,30.16,SSE,157,7.3,-999.0,51,-99.99,,,0.00,Acu-Link.com,2013-01-24 20:07:00,
2013-01-24 14:22:00,15.3,0.5,30.16,SSE,157,4.2,-999.0,51,-99.99,,,0.00,Acu-Link.com,2013-01-24 20:22:00,
2013-01-24 14:37:00,15.4,0.5,30.17,SE,135,7.3,-999.0,51,-99.99,,,0.00,Acu-Link.com,2013-01-24 20:37:00,
2013-01-24 14:52:00,15.6,0.7,30.17,SSE,157,6.8,-999.0,51,-99.99,,,0.00,Acu-Link.com,2013-01-24 20:52:00,
2013-01-24 15:07:00,15.4,0.1,30.17,SSE,157,6.3,-999.0,50,-99.99,,,0.00,Acu-Link.com,2013-01-24 21:07:00,
2013-01-24 15:23:00,15.8,0.5,30.16,SSE,157,5.3,-999.0,50,-99.99,,,0.00,Acu-Link.com,2013-01-24 21:23:00,
2013-01-24 15:38:00,16.0,0.7,30.14,South,180,8.3,-999.0,50,-99.99,,,0.00,Acu-Link.com,2013-01-24 21:38:00,
2013-01-24 15:53:00,15.8,0.9,30.14,South,180,7.8,-999.0,51,-99.99,,,0.00,Acu-Link.com,2013-01-24 21:53:00,
2013-01-24 16:08:00,15.6,0.7,30.13,South,180,4.7,-999.0,51,-99.99,,,0.00,Acu-Link.com,2013-01-24 22:08:00,
2013-01-24 16:23:00,15.4,0.5,30.11,South,180,5.3,-999.0,51,-99.99,,,0.00,Acu-Link.com,2013-01-24 22:23:00,
2013-01-24 16:38:00,15.3,0.5,30.10,SSW,202,5.3,-999.0,51,-99.99,,,0.00,Acu-Link.com,2013-01-24 22:38:00,
2013-01-24 16:54:00,15.4,1.0,30.10,South,180,6.3,-999.0,52,-99.99,,,0.00,Acu-Link.com,2013-01-24 22:54:00,
2013-01-24 17:09:00,15.1,0.7,30.09,SSE,157,4.7,-999.0,52,-99.99,,,0.00,Acu-Link.com,2013-01-24 23:09:00,
2013-01-24 17:24:00,15.1,1.1,30.07,SE,135,4.2,-999.0,53,-99.99,,,0.00,Acu-Link.com,2013-01-24 23:24:00,
2013-01-24 17:39:00,15.3,1.3,30.06,South,180,6.3,-999.0,53,-99.99,,,0.00,Acu-Link.com,2013-01-24 23:39:00,
2013-01-24 17:54:00,15.3,1.3,30.06,SSE,157,5.3,-999.0,53,-99.99,,,0.00,Acu-Link.com,2013-01-24 23:54:00,
2013-01-24 18:09:00,15.4,1.8,30.06,South,180,3.7,-999.0,54,-99.99,,,0.00,Acu-Link.com,2013-01-25 00:09:00,
2013-01-24 18:24:00,15.6,2.0,30.05,SSE,157,4.2,-999.0,54,-99.99,,,0.00,Acu-Link.com,2013-01-25 00:24:00,
2013-01-24 18:39:00,16.0,2.7,30.04,South,180,4.2,-999.0,55,-99.99,,,0.00,Acu-Link.com,2013-01-25 00:39:00,
2013-01-24 18:54:00,15.8,2.9,30.03,South,180,4.7,-999.0,56,-99.99,,,0.00,Acu-Link.com,2013-01-25 00:54:00,
2013-01-24 19:10:00,16.0,3.5,30.02,South,180,5.3,-999.0,57,-99.99,,,0.00,Acu-Link.com,2013-01-25 01:10:00,
2013-01-24 19:25:00,16.3,3.8,30.01,South,180,6.8,-999.0,57,-99.99,,,0.00,Acu-Link.com,2013-01-25 01:25:00,
2013-01-24 19:40:00,16.5,4.3,30.01,South,180,4.7,-999.0,58,-99.99,,,0.00,Acu-Link.com,2013-01-25 01:40:00,
2013-01-24 19:55:00,16.9,4.7,30.03,SSE,157,4.2,-999.0,58,-99.99,,,0.00,Acu-Link.com,2013-01-25 01:55:00,
2013-01-24 20:10:00,17.2,5.0,30.02,SE,135,4.7,-999.0,58,-99.99,,,0.00,Acu-Link.com,2013-01-25 02:10:00,
2013-01-24 20:25:00,17.6,5.7,30.02,SSE,157,4.2,-999.0,59,-99.99,,,0.00,Acu-Link.com,2013-01-25 02:25:00,
2013-01-24 20:41:00,17.6,5.7,30.02,SE,135,8.3,-999.0,59,-99.99,,,0.00,Acu-Link.com,2013-01-25 02:41:00,
2013-01-24 20:56:00,18.0,6.1,30.01,SSE,157,2.7,-999.0,59,-99.99,,,0.00,Acu-Link.com,2013-01-25 02:56:00,
2013-01-24 21:11:00,18.0,6.1,29.98,SSE,157,6.8,-999.0,59,-99.99,,,0.00,Acu-Link.com,2013-01-25 03:11:00,
2013-01-24 21:26:00,18.3,6.4,29.99,SSE,157,4.7,-999.0,59,-99.99,,,0.00,Acu-Link.com,2013-01-25 03:26:00,
2013-01-24 21:41:00,18.5,6.6,29.98,South,180,8.9,-999.0,59,-99.99,,,0.00,Acu-Link.com,2013-01-25 03:41:00,
2013-01-24 21:56:00,18.5,6.6,29.97,SSE,157,7.3,-999.0,59,-99.99,,,0.00,Acu-Link.com,2013-01-25 03:56:00,
2013-01-24 22:11:00,18.5,6.6,29.97,SSE,157,7.3,-999.0,59,-99.99,,,0.00,Acu-Link.com,2013-01-25 04:11:00,
2013-01-24 22:27:00,18.7,6.8,29.98,SSE,157,5.8,-999.0,59,-99.99,,,0.00,Acu-Link.com,2013-01-25 04:27:00,
2013-01-24 22:42:00,18.9,7.3,29.97,South,180,7.8,-999.0,60,-99.99,,,0.00,Acu-Link.com,2013-01-25 04:42:00,
2013-01-24 22:57:00,19.0,7.4,29.98,SW,225,4.7,-999.0,60,-99.99,,,0.00,Acu-Link.com,2013-01-25 04:57:00,
2013-01-24 23:12:00,19.2,7.6,29.98,South,180,4.2,-999.0,60,-99.99,,,0.00,Acu-Link.com,2013-01-25 05:12:00,
2013-01-24 23:27:00,19.2,7.6,29.98,SSE,157,4.7,-999.0,60,-99.99,,,0.00,Acu-Link.com,2013-01-25 05:27:00,
2013-01-24 23:42:00,19.4,7.8,29.96,SSE,157,6.8,-999.0,60,-99.99,,,0.00,Acu-Link.com,2013-01-25 05:42:00,
2013-01-24 23:57:00,19.4,7.8,29.95,SSE,157,5.8,-999.0,60,-99.99,,,0.00,Acu-Link.com,2013-01-25 05:57:00,